Flag for U.S.A. Weather past 2 weeks in Sedona, Arizona, U.S.A.

Now
52 °F

Sunny.


Feels Like: 51 °F
Forecast: 47 / 63 °F
Wind: 3 mph from East

Location: Sedona Airport

Current Time: Jan 26, 2015 at 8:16:47 AM

Latest Report: Jan 26, 2015 at 7:55 AM


Visibility: 10 mi

Pressure: 30.25 "Hg

Humidity: 35%

Dew point: 25 °F

Location of SedonaLocation

Historic Weather in Sedona — Graph

°F

Sedona temperature yesterday

Maximum temperature yesterday: 68 °F (at 1:35 PM)
Minimum temperature yesterday: 45 °F (at 12:15 AM)
Average temperature yesterday: 54 °F

Past Weeks' High & Low Weather Summary

 TemperatureHumidityPressure
High68 °F (Jan 25, 1:35 PM)100% (Jan 11, 11:35 PM)30.40 "Hg (Jan 11, 11:35 PM)
Low32 °F (Jan 22, 6:35 AM)16% (Jan 24, 12:55 PM)29.95 "Hg (Jan 21, 4:55 AM)
Average47 °F51%30.21 "Hg
* Reported Jan 11 7:15 AM — Jan 26 7:15 AM, Sedona, Weather by CustomWeather, © 2014

Note: Actual official high and low records may vary slightly from our data, if they occured in-between our weather recording intervals... More about our weather records

Advertising

Sedona weather history for previous 24 hours

 ConditionsComfort  
Time TempWeatherWind HumidityBarometerVisibility
7:15 AM
Jan 26
52 °FClear.10 mph35%30.25 "Hg10 mi
6:55 AM52 °FClear.No wind35%30.25 "Hg10 mi
6:15 AM52 °FClear.No wind32%30.25 "Hg10 mi
5:55 AM50 °FClear.No wind37%30.24 "Hg10 mi
5:35 AM50 °FClear.No wind37%30.23 "Hg10 mi
5:15 AM52 °FClear.No wind35%30.23 "Hg10 mi
4:55 AM52 °FClear.8 mph35%30.23 "Hg10 mi
4:15 AM52 °FClear.9 mph35%30.25 "Hg10 mi
3:55 AM52 °FClear.No wind35%30.25 "Hg10 mi
3:35 AM52 °FClear.No wind35%30.26 "Hg10 mi
3:15 AM50 °FClear.No wind37%30.26 "Hg10 mi
2:55 AM52 °FClear.No wind35%30.26 "Hg10 mi
2:35 AM52 °FClear.No wind35%30.26 "Hg10 mi
2:15 AM54 °FClear.No wind33%30.26 "Hg10 mi
1:55 AM52 °FClear.No wind35%30.27 "Hg10 mi
1:35 AM54 °FClear.No wind33%30.26 "Hg10 mi
1:15 AM54 °FClear.No wind33%30.26 "Hg10 mi
12:55 AM54 °FClear.No wind33%30.26 "Hg10 mi
12:15 AM54 °FClear.No wind33%30.26 "Hg10 mi
11:55 PM
Jan 25
54 °FClear.No wind33%30.26 "Hg10 mi
11:35 PM54 °FClear.10 mph33%30.27 "Hg10 mi
11:15 PM54 °FClear.8 mph33%30.27 "Hg10 mi
10:55 PM55 °FClear.No wind31%30.27 "Hg10 mi
10:35 PM55 °FClear.3 mph31%30.26 "Hg10 mi
10:15 PM55 °FClear.No wind31%30.25 "Hg10 mi
9:55 PM55 °FClear.No wind31%30.25 "Hg10 mi
9:35 PM55 °FClear.No wind31%30.25 "Hg10 mi
9:15 PM55 °FClear.No wind31%30.24 "Hg10 mi
8:55 PM55 °FClear.12 mph31%30.23 "Hg10 mi
8:15 PM55 °FClear.13 mph28%30.22 "Hg10 mi
7:55 PM55 °FClear.14 mph31%30.22 "Hg10 mi
7:35 PM55 °FClear.14 mph31%30.21 "Hg10 mi
7:15 PM55 °FClear.20 mph28%30.21 "Hg10 mi
6:55 PM57 °FClear.15 mph27%30.21 "Hg10 mi
6:15 PM59 °FClear.18 mph25%30.21 "Hg10 mi
5:55 PM59 °FClear.17 mph25%30.19 "Hg10 mi
5:15 PM61 °FSunny.15 mph23%30.19 "Hg10 mi
4:55 PM63 °FSunny.16 mph22%30.19 "Hg10 mi
4:15 PM64 °FSunny.8 mph21%30.19 "Hg10 mi
3:55 PM66 °FSunny.No wind19%30.19 "Hg10 mi
3:15 PM64 °FSunny.13 mph21%30.21 "Hg10 mi
2:15 PM68 °FSunny.9 mph20%30.20 "Hg10 mi
1:55 PM68 °FSunny.10 mph20%30.20 "Hg10 mi
1:35 PM68 °FSunny.10 mph18%30.20 "Hg10 mi
1:15 PM66 °FSunny.9 mph21%30.21 "Hg10 mi
12:55 PM66 °FSunny.9 mph21%30.21 "Hg10 mi
12:35 PM66 °FSunny.9 mph22%30.23 "Hg10 mi
12:15 PM63 °FSunny.No wind24%30.24 "Hg10 mi
11:55 AM61 °FSunny.No wind25%30.25 "Hg10 mi
11:35 AM59 °FSunny.No wind25%30.26 "Hg10 mi
11:15 AM55 °FSunny.No wind28%30.27 "Hg10 mi
10:55 AM55 °FSunny.No wind28%30.27 "Hg10 mi
10:35 AM55 °FSunny.No wind31%30.27 "Hg10 mi
10:15 AM55 °FSunny.No wind28%30.27 "Hg10 mi
9:55 AM54 °FSunny.5 mph30%30.26 "Hg10 mi
9:35 AM54 °FSunny.7 mph28%30.26 "Hg10 mi
9:15 AM54 °FSunny.8 mph28%30.26 "Hg10 mi
8:55 AM52 °FSunny.No wind32%30.25 "Hg10 mi
8:35 AM50 °FSunny.No wind35%30.26 "Hg10 mi
8:15 AM50 °FSunny.No wind35%30.26 "Hg10 mi
Weather by CustomWeather, © 2014

See weather overviewHow to use our weather pages